Weather History for La Crosse, WI

Change the Weather History Date:

Tuesday, September 3, 2013

  Actual Average Record
Temperature  
Mean Temperature 63 °F 68 °F  
Max Temperature 78 °F 78 °F 95 °F (1929)
Min Temperature 48 °F 58 °F 38 °F (1974)
Degree Days  
Heating Degree Days 2 2  
Month to date heating degree days 6 4  
Since 1 July heating degree days 20 24  
Cooling Degree Days 0 4  
Month to date cooling degree days 9 14  
Year to date cooling degree days 794 714  
Growing Degree Days 12 (Base 50)    
Moisture  
Dew Point 51 °F    
Average Humidity 70    
Maximum Humidity 100    
Minimum Humidity 40    
Precipitation  
Precipitation 0.00 in 0.12 in 2.30 in (1934)
Month to date precipitation T 0.37  
Year to date precipitation 27.15 24.33  
Snow  
Snow 0.00 in 0.00 in 0.00 in (2002)
Month to date snowfall 0.0 0.0  
Since 1 July snowfall T 0.0  
Snow Depth 0.00 in    
Sea Level Pressure  
Sea Level Pressure 30.07 in    
Wind  
Wind Speed 4 mph (SE)    
Max Wind Speed 10 mph    
Max Gust Speed 22 mph    
Visibility 7 miles    
Events Fog    
T = Trace of Precipitation, MM = Missing Value Source: NWS Daily Summary

Daily Weather History Graph

Daily Weather History Graph

Search for Another Location

Airport:

Trip Planner

Search our weather history database for the weather conditions in past years. The results will help you decide how hot, cold, wet, or windy it might be!

Date:

Astronomy

Sep. 03, 2013 Rise Set
Actual Time 6:30 AM CDT 7:36 PM CDT
Civil Twilight 6:01 AM CDT 8:06 PM CDT
Nautical Twilight 5:26 AM CDT 8:41 PM CDT
Astronomical Twilight 4:48 AM CDT 9:18 PM CDT
Moon 4:43 AM CDT (9/3) 6:24 PM CDT (9/3)
Length of Visible Light 14h 04m
Length of Day
13h 05m
Waning Crescent, 3% of the Moon is Illuminated
Sep 3
Waning Crescent
Sep 5
New
Sep 12
First Quarter
Sep 19
Full
Sep 26
Last Quarter

Hourly Weather History & Observations

Time (CDT) Temp. Dew Point Humidity Pressure Visibility Wind Dir Wind Speed Gust Speed Precip Events Conditions
12:53 AM 55.0 °F 52.0 °F 89% 30.04 in 10.0 mi Calm Calm - N/A   Clear
1:53 AM 53.1 °F 51.1 °F 93% 30.05 in 10.0 mi NNE 3.5 mph - N/A   Clear
2:22 AM 50.0 °F 48.2 °F 94% 30.06 in 2.5 mi Calm Calm - N/A   Partly Cloudy
2:35 AM 51.8 °F 50.0 °F 94% 30.06 in 10.0 mi Calm Calm - N/A   Clear
2:53 AM 51.1 °F 50.0 °F 96% 30.06 in 10.0 mi Calm Calm - N/A   Clear
3:53 AM 50.0 °F 48.0 °F 93% 30.07 in 10.0 mi East 4.6 mph - N/A   Clear
4:53 AM 48.0 °F 46.9 °F 96% 30.07 in 10.0 mi ESE 3.5 mph - N/A   Clear
5:43 AM 48.2 °F 46.4 °F 93% 30.09 in 9.0 mi ESE 3.5 mph - N/A   Scattered Clouds
5:51 AM 48.2 °F 46.4 °F 93% 30.09 in 2.5 mi ESE 4.6 mph - N/A   Mostly Cloudy
5:52 AM 48.9 °F 46.9 °F 93% 30.09 in 2.0 mi ESE 4.6 mph - N/A   Mostly Cloudy
5:58 AM 48.2 °F 48.2 °F 100% 30.09 in 0.8 mi ESE 3.5 mph - N/A   Mist
6:14 AM 50.0 °F 48.2 °F 94% 30.09 in 0.2 mi ESE 3.5 mph - N/A Fog Fog
6:53 AM 50.0 °F 48.9 °F 96% 30.09 in 0.2 mi ESE 4.6 mph - N/A Fog Fog
7:53 AM 51.1 °F 51.1 °F 100% 30.10 in 0.2 mi SE 3.5 mph - N/A Fog Fog
8:32 AM 51.8 °F 51.8 °F 100% 30.12 in 0.2 mi Calm Calm - N/A Fog Fog
8:53 AM 52.0 °F 52.0 °F 100% 30.12 in 0.5 mi Calm Calm - N/A Fog Fog
9:14 AM 53.6 °F 53.6 °F 100% 30.11 in 1.8 mi ESE 3.5 mph - N/A   Overcast
9:33 AM 53.6 °F 53.6 °F 100% 30.12 in 3.0 mi Calm Calm - N/A   Overcast
9:53 AM 55.0 °F 53.1 °F 93% 30.12 in 8.0 mi Calm Calm - N/A   Mostly Cloudy
10:07 AM 57.2 °F 53.6 °F 88% 30.12 in 10.0 mi Calm Calm - N/A   Scattered Clouds
10:53 AM 64.9 °F 53.1 °F 65% 30.11 in 10.0 mi Calm Calm - N/A   Clear
11:53 AM 71.1 °F 52.0 °F 51% 30.09 in 10.0 mi WNW 4.6 mph - N/A   Clear
12:53 PM 72.0 °F 52.0 °F 49% 30.06 in 10.0 mi Variable 5.8 mph - N/A   Clear
1:53 PM 73.0 °F 53.1 °F 49% 30.05 in 10.0 mi Variable 4.6 mph - N/A   Clear
2:53 PM 75.0 °F 51.1 °F 43% 30.03 in 10.0 mi Calm Calm - N/A   Clear
3:53 PM 75.9 °F 50.0 °F 40% 30.02 in 10.0 mi SW 5.8 mph - N/A   Clear
4:53 PM 75.9 °F 50.0 °F 40% 30.01 in 10.0 mi SSW 4.6 mph - N/A   Clear
5:53 PM 77.0 °F 52.0 °F 42% 30.01 in 10.0 mi West 9.2 mph - N/A   Clear
6:53 PM 73.0 °F 53.1 °F 49% 30.01 in 10.0 mi WSW 6.9 mph - N/A   Clear
7:53 PM 66.9 °F 54.0 °F 63% 30.01 in 10.0 mi SSW 4.6 mph - N/A   Clear
8:53 PM 64.0 °F 54.0 °F 70% 30.02 in 10.0 mi Calm Calm - N/A   Clear
9:53 PM 61.0 °F 54.0 °F 78% 30.02 in 10.0 mi SSE 5.8 mph - N/A   Clear
10:53 PM 59.0 °F 54.0 °F 83% 30.03 in 10.0 mi SE 3.5 mph - N/A   Clear
11:53 PM 59.0 °F 55.0 °F 87% 30.02 in 10.0 mi SE 4.6 mph - N/A   Clear